Location: Bucharest
(44.4268°N, 26.1025°E)
Time: 23:35:39
(UTC+03:00)

SPROUT - Visible Passes

Search period start: 26 June 2022 00:00
Search period end: 06 July 2022 00:00
Orbit: 588 x 602 km, 97.9° (Epoch: 26 June)

Date Brightness Start Highest point End Pass type
(mag) Time Alt. Az. Time Alt. Az. Time Alt. Az.
26 Jun ? 00:55:14 15° E 00:56:55 18° ENE 00:59:47 10° NNE visible
26 Jun ? 02:31:52 42° WSW 02:32:11 43° W 02:36:12 10° NNW visible
27 Jun ? 01:04:49 18° E 01:06:19 22° ENE 01:09:34 10° NNE visible
27 Jun ? 02:41:28 34° WSW 02:41:43 34° W 02:45:32 10° NNW visible
28 Jun ? 01:14:24 23° E 01:15:42 27° ENE 01:19:15 10° N visible
28 Jun ? 02:51:03 27° W 02:51:15 27° W 02:54:49 10° NW visible
29 Jun ? 01:23:59 29° ESE 01:25:06 34° ENE 01:28:52 10° N visible
29 Jun ? 03:00:37 22° W 03:00:46 22° W 03:04:01 10° NW visible
30 Jun ? 01:33:33 36° ESE 01:34:30 42° ENE 01:38:26 10° N visible
30 Jun ? 03:10:11 17° W 03:10:17 18° W 03:13:06 10° NW visible
01 Jul ? 01:43:06 45° ESE 01:43:54 53° ENE 01:47:58 10° N visible
01 Jul ? 03:19:45 14° W 03:19:49 14° W 03:22:01 10° WNW visible
02 Jul ? 01:52:39 57° SE 01:53:17 68° ENE 01:57:26 10° N visible
02 Jul ? 03:29:18 11° W 03:29:20 11° W 03:30:31 10° WNW visible
03 Jul ? 02:02:12 69° SSE 02:02:41 86° ENE 02:06:53 10° NNW visible
04 Jul ? 00:35:37 10° E 00:37:06 12° ENE 00:38:34 10° NE visible
04 Jul ? 02:11:43 68° SSW 02:12:05 75° WSW 02:16:17 10° NNW visible
05 Jul ? 00:44:36 11° E 00:46:23 14° ENE 00:48:38 10° NNE visible
05 Jul ? 02:21:14 57° WSW 02:21:29 58° W 02:25:37 10° NNW visible
